Home > Weather > Pasco > Past weeks

Flag for USA Past Weather in Pasco, Washington, USA — Yesterday and Last 2 Weeks

Now
60 °F

Clear.


Feels Like: 60 °F
Forecast: 60 / 86 °F
Wind: No wind

Location: Tri-Cities Airport

Current Time: Jul 23, 2016 at 4:11:12 AM

Latest Report: Jul 23, 2016 at 3:53 AM


Visibility: 10 mi

Pressure: 30.14 "Hg

Humidity: 72%

Dew Point: 51 °F

Location of PascoLocation

Past Weather in Pasco — Graph

°F

Pasco Temperature Yesterday

Maximum temperature yesterday: 86 °F (at 2:53 PM)
Minimum temperature yesterday: 67 °F (at 7:53 AM)
Average temperature yesterday: 75 °F

High & Low Weather Summary for the Past Weeks

 TemperatureHumidityPressure
High98 °F (Jul 21, 3:53 PM)93% (Jul 20, 4:53 AM)30.15 "Hg (Jul 20, 4:53 AM)
Low52 °F (Jul 20, 4:53 AM)12% (Jul 14, 6:53 PM)29.77 "Hg (Jul 17, 5:53 PM)
Average72 °F49%29.95 "Hg
* Reported Jul 8 2:53 AM — Jul 23 2:53 AM, Pasco, Weather by CustomWeather, © 2016

Note: Actual official high and low records may vary slightly from our data, if they occured in-between our weather recording intervals... More about our weather records

Advertising

Pasco Weather History for the Previous 24 Hours

Scroll right to see more
 ConditionsComfort  
Time TempWeatherWind HumidityBarometerVisibility
2:53 AM
Sat, Jul 23
63 °FClear.5 mph63%30.14 "Hg10 mi
1:53 AM63 °FClear.No wind54%30.15 "Hg10 mi
12:53 AM63 °FClear.9 mph54%30.15 "Hg10 mi
11:53 PM
Fri, Jul 22
67 °FClear.14 mph45%30.14 "Hg10 mi
10:53 PM69 °FClear.20 mph44%30.14 "Hg10 mi
9:53 PM70 °FClear.15 mph41%30.13 "Hg10 mi
8:53 PM72 °FSunny.15 mph40%30.10 "Hg10 mi
7:53 PM77 °FScattered clouds.15 mph32%30.09 "Hg10 mi
6:53 PM81 °FPartly sunny.16 mph32%30.07 "Hg10 mi
5:53 PM85 °FSunny.17 mph28%30.06 "Hg10 mi
4:53 PM86 °FSunny.15 mph27%30.06 "Hg10 mi
3:53 PM86 °FSunny.10 mph26%30.06 "Hg10 mi
2:53 PM86 °FSunny.13 mph30%30.07 "Hg10 mi
1:53 PM85 °FSunny.15 mph32%30.08 "Hg10 mi
12:53 PM83 °FSunny.9 mph34%30.09 "Hg10 mi
11:53 AM81 °FSunny.8 mph38%30.09 "Hg10 mi
10:53 AM77 °FScattered clouds.10 mph45%30.11 "Hg10 mi
9:53 AM71 °FPartly sunny.10 mph55%30.10 "Hg10 mi
8:53 AM67 °FBroken clouds.17 mph66%30.10 "Hg10 mi
7:53 AM67 °FPartly sunny.16 mph66%30.07 "Hg10 mi
6:53 AM68 °FOvercast.15 mph65%30.04 "Hg10 mi
5:53 AM69 °FOvercast.13 mph63%30.02 "Hg10 mi
4:53 AM70 °FPassing clouds.9 mph61%30.01 "Hg10 mi
Weather by CustomWeather, © 2016

See weather overviewHow to use our weather pages